DO1SC Weather Reports


time (UTC)temp
F
wind
direction
speed
knots
gust
knots
rain 1hr
in
rain 24hr
in
rain mn
in
humidity
%
barometer
mb
20260506044532 51 93 2.6 5.2 0.00 0.00 0.00 94 1006.5
20260506043526 51 79 2.6 5.2 0.00 0.00 0.00 95 1006.4
20260506042535 51 92 1.7 5.2 0.00 0.00 0.00 96 1006.3
20260506041528 51 68 1.7 4.3 0.00 0.00 0.00 96 1006.4
20260506040518 51 73 1.7 4.3 0.00 0.00 0.00 96 1006.3
20260506035530 51 79 1.7 4.3 0.00 0.00 0.00 96 1006.3
20260506034522 51 76 2.6 4.3 0.00 0.00 0.00 96 1006.3
20260506033536 52 114 1.7 3.5 0.00 0.00 0.00 96 1006.2
20260506032525 52 98 1.7 3.5 0.00 0.00 0.00 96 1006.3
20260506031516 52 82 1.7 4.3 0.00 0.00 0.00 95 1006.2
20260506030531 52 104 1.7 3.5 0.00 0.00 0.00 95 1006.3
20260506025520 52 112 1.7 3.5 0.00 0.00 0.00 95 1006.4
20260506024532 52 85 1.7 3.5 0.00 0.00 0.00 95 1006.4
20260506023523 52 93 1.7 3.5 0.00 0.00 0.00 95 1006.4
20260506022535 52 92 1.7 5.2 0.00 0.00 0.00 95 1006.5
20260506021530 52 67 1.7 3.5 0.00 0.00 0.00 95 1006.5
20260506020518 52 112 1.7 5.2 0.00 0.00 0.00 95 1006.5
20260506015529 52 63 1.7 3.5 0.00 0.00 0.00 95 1006.5
20260506014521 52 89 1.7 5.2 0.00 0.00 0.00 94 1006.6
20260506013532 52 118 1.7 5.2 0.00 0.00 0.00 95 1006.7
20260506012524 52 86 1.7 5.2 0.00 0.00 0.00 95 1006.7
20260506011536 52 110 1.7 5.2 0.00 0.00 0.00 95 1006.8
20260506010527 52 45 2.6 5.2 0.00 0.00 0.00 95 1006.8
20260506005519 52 110 2.6 5.2 0.00 0.00 0.00 95 1006.7
20260506004531 52 128 1.7 5.2 0.00 0.00 0.00 95 1006.7
20260506003525 52 79 1.7 5.2 0.00 0.00 0.00 96 1006.7
20260506002534 52 62 1.7 4.3 0.00 0.00 0.00 96 1006.9
20260506001525 52 128 2.6 5.2 0.00 0.00 0.00 96 1007.0
20260506000517 52 76 1.7 3.5 0.00 0.00 0.00 96 1007.0
20260505235528 52 101 1.7 4.3 0.00 0.00 0.00 95 1007.2
20260505234523 52 140 3.5 8.7 0.00 0.00 0.00 95 1007.3
20260505233532 52 83 1.7 6.1 0.00 0.00 0.00 95 1007.2
20260505232527 52 63 2.6 5.2 0.00 0.00 0.00 96 1007.1
20260505231535 52 140 2.6 4.3 0.00 0.00 0.00 96 1007.0
20260505230527 52 41 1.7 3.5 0.00 0.00 0.00 96 1007.0
20260505225521 52 79 2.6 7.8 0.00 0.00 0.00 96 1007.1
20260505224530 51 56 1.7 3.5 0.00 0.00 0.00 96 1007.0
20260505223521 51 171 1.7 5.2 0.00 0.00 0.00 96 1007.1
20260505222533 51 117 1.7 4.3 0.00 0.00 0.00 96 1007.1
20260505221527 51 135 2.6 6.1 0.00 0.00 0.00 96 1007.1
20260505220519 51 65 1.7 5.2 0.00 0.00 0.00 96 1007.1
20260505215527 52 53 2.6 5.2 0.00 0.00 0.00 96 1007.3
20260505214521 51 141 0.9 5.2 0.00 0.00 0.00 96 1007.2
20260505213533 51 129 2.6 7.0 0.00 0.00 0.00 96 1007.3
20260505212525 51 158 2.6 5.2 0.00 0.00 0.00 96 1007.2
20260505211533 51 75 2.6 5.2 0.00 0.00 0.00 96 1007.3
20260505210525 51 78 2.6 6.1 0.00 0.00 0.00 96 1007.5
20260505205517 51 96 2.6 5.2 0.00 0.00 0.00 96 1007.6
20260505204532 51 114 2.6 5.2 0.00 0.00 0.00 96 1007.6
20260505203520 51 137 1.7 4.3 0.00 0.00 0.00 96 1007.6
20260505202533 51 109 0.9 3.5 0.00 0.00 0.00 95 1007.5
20260505201524 51 10 0.0 1.7 0.00 0.00 0.00 95 1007.4
20260505200535 52 105 0.9 2.6 0.00 0.00 0.00 94 1007.1
20260505195529 52 303 0.9 2.6 0.00 0.00 0.00 93 1006.8
20260505194517 52 268 0.0 2.6 0.00 0.00 0.00 92 1006.7
20260505193529 52 280 1.7 7.8 0.00 0.00 0.00 91 1006.8
20260505192520 52 277 2.6 7.8 0.00 0.00 0.00 94 1006.9
20260505191532 52 26 0.9 3.5 0.00 0.00 0.00 95 1007.3
20260505190526 52 56 1.7 3.5 0.00 0.00 0.00 94 1007.6
20260505185533 52 47 0.9 2.6 0.00 0.00 0.00 94 1007.7
20260505184524 52 102 2.6 5.2 0.00 0.00 0.00 93 1007.7
20260505183536 52 97 1.7 5.2 0.00 0.00 0.00 92 1007.8
20260505182528 53 108 2.6 6.1 0.00 0.00 0.00 92 1008.1
20260505181519 54 116 1.7 6.1 0.00 0.00 0.00 88 1008.2
20260505180530 57 116 4.3 15.6 0.00 0.00 0.00 84 1008.1
20260505175521 58 297 2.6 6.1 0.00 0.00 0.00 88 1006.8
20260505174533 58 307 2.6 7.8 0.00 0.00 0.00 86 1006.8
20260505173525 58 303 2.6 5.2 0.00 0.00 0.00 85 1006.8
20260505172536 59 294 2.6 7.8 0.00 0.00 0.00 85 1006.8
20260505171525 59 309 5.2 12.2 0.00 0.00 0.00 84 1006.8
20260505170536 59 314 3.5 6.1 0.00 0.00 0.00 83 1006.9
20260505165527 59 304 3.5 7.0 0.00 0.00 0.00 83 1007.0
20260505164518 60 300 3.5 7.8 0.00 0.00 0.00 82 1007.1
20260505163533 60 311 2.6 6.1 0.00 0.00 0.00 83 1007.1
20260505162522 60 305 2.6 4.3 0.00 0.00 0.00 83 1007.4
20260505161532 60 295 1.7 3.5 0.00 0.00 0.00 83 1007.5
20260505160522 59 295 2.6 5.2 0.00 0.00 0.00 83 1007.4
20260505152531 61 300 3.5 7.0 0.00 0.00 0.00 76 1007.8
20260505151520 62 301 2.6 9.6 0.00 0.00 0.00 74 1007.7
20260505150531 62 319 5.2 12.2 0.00 0.00 0.00 73 1008.0
20260505140519 64 300 3.5 10.4 0.00 0.00 0.00 67 1008.3
20260505124528 64 301 4.3 10.4 0.00 0.00 0.00 70 1008.9
20260505123520 64 291 5.2 10.4 0.00 0.00 0.00 71 1008.9
20260505122536 63 293 4.3 7.0 0.00 0.00 0.00 73 1009.1
20260505121523 62 291 4.3 7.8 0.00 0.00 0.00 75 1009.2
20260505120534 63 293 4.3 7.8 0.00 0.00 0.00 74 1009.1
20260505115540 64 298 5.2 10.4 0.00 0.00 0.00 71 1009.1
20260505114520 64 295 4.3 8.7 0.00 0.00 0.00 70 1009.2
20260505113528 66 312 5.2 9.6 0.00 0.00 0.00 67 1009.3
20260505112520 66 306 4.3 11.3 0.00 0.00 0.00 65 1009.3
20260505111535 65 295 5.2 10.4 0.00 0.00 0.00 65 1009.4
20260505110527 65 299 4.3 10.4 0.00 0.00 0.00 66 1009.5
20260505101520 64 307 3.5 7.8 0.00 0.00 0.00 69 1010.0
20260505100530 63 297 4.3 7.8 0.00 0.00 0.00 72 1009.9
20260505095522 63 288 3.5 7.0 0.00 0.00 0.00 72 1010.1
20260505094533 61 310 2.6 7.0 0.00 0.00 0.00 73 1010.1
20260505093524 61 300 5.2 8.7 0.00 0.00 0.00 74 1010.2
20260505092516 61 300 4.3 7.8 0.00 0.00 0.00 74 1010.2
20260505091528 60 308 3.5 7.0 0.00 0.00 0.00 77 1010.4
20260505090520 60 300 4.3 7.8 0.00 0.00 0.00 78 1010.4
20260505085532 61 292 3.5 7.8 0.00 0.00 0.00 76 1010.6
20260505084523 60 306 0.9 2.6 0.00 0.00 0.00 77 1010.6
20260505083535 59 289 0.9 2.6 0.00 0.00 0.00 78 1010.6
20260505082526 58 309 0.9 2.6 0.00 0.00 0.00 81 1010.7
20260505081518 58 312 2.6 3.5 0.00 0.00 0.00 81 1010.8
20260505080532 57 310 0.9 1.7 0.00 0.00 0.00 82 1010.8
20260505075523 57 101 1.7 4.3 0.00 0.00 0.00 83 1010.7
20260505074532 58 150 1.7 3.5 0.00 0.00 0.00 82 1010.8
20260505073523 57 56 1.7 4.3 0.00 0.00 0.00 85 1010.8
20260505072538 56 154 0.9 3.5 0.00 0.00 0.00 86 1010.8
20260505071527 56 136 1.7 4.3 0.00 0.00 0.00 86 1010.8
20260505070519 56 174 0.9 3.5 0.00 0.00 0.00 87 1010.9
20260505065531 55 158 1.7 3.5 0.00 0.00 0.00 88 1010.8
20260505064522 54 127 1.7 3.5 0.00 0.00 0.00 92 1010.6
20260505063536 53 300 0.9 2.6 0.00 0.00 0.00 96 1010.8
20260505062525 52 288 0.9 2.6 0.00 0.00 0.00 96 1010.8
20260505061516 52 292 0.9 2.6 0.00 0.00 0.00 96 1010.9
20260505060531 52 308 0.9 3.5 0.00 0.00 0.00 96 1011.0
20260505055518 52 301 1.7 3.5 0.00 0.00 0.00 96 1011.1
20260505054530 52 299 1.7 2.6 0.00 0.00 0.00 96 1010.9
20260505053522 52 348 0.9 2.6 0.00 0.00 0.00 95 1010.9
20260505052533 52 289 0.9 3.5 0.00 0.00 0.00 95 1010.9
20260505051524 52 317 1.7 3.5 0.00 0.00 0.00 94 1011.0
20260505050517 52 306 1.7 3.5 0.00 0.00 0.00 94 1011.0